Time,TemperatureF,DewpointF,PressureIn,WindDirection,WindDirectionDegrees,WindSpeedMPH,WindSpeedGustMPH,Humidity,HourlyPrecipIn,Conditions,Clouds,dailyrainin,SolarRadiationWatts/m^2,SoftwareType,DateUTC
2013-01-20 00:11:00,66.4,64.0,30.09,North,11,0.0,-999.0,92,-99.99,,,0.00,0,weatherlink.com 1.10,2013-01-20 05:11:00,
2013-01-20 00:26:00,66.2,64.0,30.09,North,11,0.0,-999.0,92,-99.99,,,0.00,0,weatherlink.com 1.10,2013-01-20 05:26:00,
2013-01-20 00:41:00,66.0,64.0,30.09,North,11,0.0,-999.0,93,-99.99,,,0.00,0,weatherlink.com 1.10,2013-01-20 05:41:00,
2013-01-20 01:11:00,65.6,64.0,30.09,North,11,0.0,-999.0,93,-99.99,,,0.00,0,weatherlink.com 1.10,2013-01-20 06:11:00,
2013-01-20 01:26:00,65.4,63.0,30.08,North,11,0.0,-999.0,93,-99.99,,,0.00,0,weatherlink.com 1.10,2013-01-20 06:26:00,
2013-01-20 01:41:00,65.3,63.0,30.08,North,11,0.0,-999.0,93,-99.99,,,0.00,0,weatherlink.com 1.10,2013-01-20 06:41:00,
2013-01-20 02:11:00,64.3,62.0,30.08,North,11,0.0,-999.0,93,-99.99,,,0.00,0,weatherlink.com 1.10,2013-01-20 07:11:00,
2013-01-20 02:26:00,63.9,62.0,30.07,North,11,0.0,-999.0,93,-99.99,,,0.00,0,weatherlink.com 1.10,2013-01-20 07:26:00,
2013-01-20 02:41:00,63.7,62.0,30.07,North,11,0.0,-999.0,93,-99.99,,,0.00,0,weatherlink.com 1.10,2013-01-20 07:41:00,
2013-01-20 02:56:00,63.6,62.0,30.07,North,11,0.0,-999.0,93,-99.99,,,0.00,0,weatherlink.com 1.10,2013-01-20 07:56:00,
2013-01-20 03:11:00,63.8,62.0,30.07,North,11,0.0,-999.0,94,-99.99,,,0.00,0,weatherlink.com 1.10,2013-01-20 08:11:00,
2013-01-20 03:26:00,64.1,62.0,30.07,North,11,0.0,-999.0,94,-99.99,,,0.01,0,weatherlink.com 1.10,2013-01-20 08:26:00,
2013-01-20 03:41:00,64.1,62.0,30.07,North,11,0.0,-999.0,94,-99.99,,,0.01,0,weatherlink.com 1.10,2013-01-20 08:41:00,
2013-01-20 03:56:00,64.3,63.0,30.06,North,11,0.0,-999.0,94,-99.99,,,0.01,0,weatherlink.com 1.10,2013-01-20 08:56:00,
2013-01-20 04:11:00,64.2,63.0,30.06,North,11,0.0,-999.0,94,-99.99,,,0.01,0,weatherlink.com 1.10,2013-01-20 09:11:00,
2013-01-20 04:26:00,64.2,63.0,30.07,North,11,0.0,-999.0,94,-99.99,,,0.01,0,weatherlink.com 1.10,2013-01-20 09:26:00,
2013-01-20 04:41:00,64.2,63.0,30.07,North,11,0.0,-999.0,94,-99.99,,,0.01,0,weatherlink.com 1.10,2013-01-20 09:41:00,
2013-01-20 04:56:00,64.3,63.0,30.07,North,11,0.0,-999.0,94,-99.99,,,0.01,0,weatherlink.com 1.10,2013-01-20 09:56:00,
2013-01-20 05:12:00,64.3,63.0,30.07,North,11,0.0,-999.0,95,-99.99,,,0.01,0,weatherlink.com 1.10,2013-01-20 10:12:00,
2013-01-20 05:26:00,64.2,63.0,30.07,North,11,0.0,-999.0,95,-99.99,,,0.01,0,weatherlink.com 1.10,2013-01-20 10:26:00,
2013-01-20 05:56:00,64.4,63.0,30.09,North,11,0.0,-999.0,95,-99.99,,,0.01,0,weatherlink.com 1.10,2013-01-20 10:56:00,
2013-01-20 06:11:00,64.4,63.0,30.08,North,11,0.0,-999.0,95,-99.99,,,0.01,0,weatherlink.com 1.10,2013-01-20 11:11:00,
2013-01-20 06:26:00,64.4,63.0,30.09,North,10,0.0,-999.0,95,-99.99,,,0.01,0,weatherlink.com 1.10,2013-01-20 11:26:00,
2013-01-20 06:41:00,64.6,63.0,30.09,North,5,0.0,-999.0,95,-99.99,,,0.01,0,weatherlink.com 1.10,2013-01-20 11:41:00,
2013-01-20 06:56:00,64.7,63.0,30.10,NW,304,0.0,-999.0,95,-99.99,,,0.01,0,weatherlink.com 1.10,2013-01-20 11:56:00,
2013-01-20 07:11:00,64.9,64.0,30.10,NW,304,0.0,-999.0,95,-99.99,,,0.01,0,weatherlink.com 1.10,2013-01-20 12:11:00,
2013-01-20 07:26:00,64.9,64.0,30.10,NW,304,0.0,-999.0,95,-99.99,,,0.01,19,weatherlink.com 1.10,2013-01-20 12:26:00,
2013-01-20 07:41:00,65.1,64.0,30.11,NW,304,0.0,-999.0,95,-99.99,,,0.01,54,weatherlink.com 1.10,2013-01-20 12:41:00,
2013-01-20 07:56:00,65.4,64.0,30.11,NW,304,0.0,-999.0,95,-99.99,,,0.01,62,weatherlink.com 1.10,2013-01-20 12:56:00,
2013-01-20 08:11:00,66.1,65.0,30.12,NW,304,0.0,-999.0,96,-99.99,,,0.01,95,weatherlink.com 1.10,2013-01-20 13:11:00,
2013-01-20 08:26:00,66.3,65.0,30.12,NW,304,0.0,-999.0,96,-99.99,,,0.01,67,weatherlink.com 1.10,2013-01-20 13:26:00,
2013-01-20 08:41:00,66.4,65.0,30.13,NW,304,0.0,-999.0,96,-99.99,,,0.01,118,weatherlink.com 1.10,2013-01-20 13:41:00,
2013-01-20 08:56:00,66.7,66.0,30.13,NW,304,0.0,-999.0,96,-99.99,,,0.01,167,weatherlink.com 1.10,2013-01-20 13:56:00,
2013-01-20 09:11:00,67.6,67.0,30.13,NW,304,0.0,-999.0,96,-99.99,,,0.01,306,weatherlink.com 1.10,2013-01-20 14:11:00,
2013-01-20 09:27:00,68.7,67.0,30.14,NW,304,0.0,-999.0,95,-99.99,,,0.01,355,weatherlink.com 1.10,2013-01-20 14:27:00,
2013-01-20 09:42:00,70.3,68.0,30.14,NW,304,0.0,-999.0,93,-99.99,,,0.01,415,weatherlink.com 1.10,2013-01-20 14:42:00,
2013-01-20 09:57:00,72.1,69.0,30.14,NW,304,0.0,-999.0,90,-99.99,,,0.01,457,weatherlink.com 1.10,2013-01-20 14:57:00,
2013-01-20 10:12:00,73.9,69.0,30.14,NW,304,0.0,-999.0,84,-99.99,,,0.01,496,weatherlink.com 1.10,2013-01-20 15:12:00,
2013-01-20 10:27:00,74.7,68.0,30.13,NW,304,0.0,-999.0,79,-99.99,,,0.01,533,weatherlink.com 1.10,2013-01-20 15:27:00,
2013-01-20 10:42:00,76.1,69.0,30.13,NW,304,1.0,-999.0,78,-99.99,,,0.01,441,weatherlink.com 1.10,2013-01-20 15:42:00,
2013-01-20 10:57:00,75.6,68.0,30.12,NW,307,0.0,-999.0,76,-99.99,,,0.01,589,weatherlink.com 1.10,2013-01-20 15:57:00,
2013-01-20 11:12:00,76.3,68.0,30.12,NW,304,0.0,-999.0,76,-99.99,,,0.01,638,weatherlink.com 1.10,2013-01-20 16:12:00,
2013-01-20 11:27:00,77.6,69.0,30.11,WNW,289,0.0,-999.0,74,-99.99,,,0.01,673,weatherlink.com 1.10,2013-01-20 16:27:00,
2013-01-20 11:42:00,77.3,68.0,30.10,WNW,290,0.0,-999.0,74,-99.99,,,0.01,717,weatherlink.com 1.10,2013-01-20 16:42:00,
2013-01-20 11:57:00,77.2,68.0,30.09,NNW,344,0.0,-999.0,72,-99.99,,,0.01,487,weatherlink.com 1.10,2013-01-20 16:57:00,
2013-01-20 12:12:00,77.3,66.0,30.07,NNW,344,0.0,-999.0,69,-99.99,,,0.01,671,weatherlink.com 1.10,2013-01-20 17:12:00,
2013-01-20 12:27:00,79.6,68.0,30.06,NE,40,0.0,-999.0,68,-99.99,,,0.01,700,weatherlink.com 1.10,2013-01-20 17:27:00,
2013-01-20 12:42:00,78.9,68.0,30.05,ENE,57,0.0,-999.0,70,-99.99,,,0.01,127,weatherlink.com 1.10,2013-01-20 17:42:00,
2013-01-20 12:57:00,76.8,68.0,30.04,East,93,4.0,-999.0,75,-99.99,,,0.01,113,weatherlink.com 1.10,2013-01-20 17:57:00,
2013-01-20 13:12:00,75.9,68.0,30.04,East,84,3.0,-999.0,77,-99.99,,,0.01,135,weatherlink.com 1.10,2013-01-20 18:12:00,
2013-01-20 13:27:00,77.8,69.0,30.03,ENE,65,3.0,-999.0,73,-99.99,,,0.01,642,weatherlink.com 1.10,2013-01-20 18:27:00,
2013-01-20 13:42:00,78.3,68.0,30.03,NE,56,0.0,-999.0,70,-99.99,,,0.01,615,weatherlink.com 1.10,2013-01-20 18:42:00,
2013-01-20 13:57:00,78.3,68.0,30.02,ENE,63,1.0,-999.0,70,-99.99,,,0.01,160,weatherlink.com 1.10,2013-01-20 18:57:00,
2013-01-20 14:12:00,76.7,67.0,30.02,ESE,111,1.0,-999.0,73,-99.99,,,0.01,272,weatherlink.com 1.10,2013-01-20 19:12:00,
2013-01-20 14:27:00,76.5,68.0,30.02,East,87,4.0,-999.0,74,-99.99,,,0.01,176,weatherlink.com 1.10,2013-01-20 19:27:00,
2013-01-20 14:42:00,75.8,67.0,30.02,ENE,73,3.0,-999.0,74,-99.99,,,0.01,185,weatherlink.com 1.10,2013-01-20 19:42:00,
2013-01-20 14:57:00,75.6,67.0,30.01,East,85,0.0,-999.0,75,-99.99,,,0.01,163,weatherlink.com 1.10,2013-01-20 19:57:00,
2013-01-20 15:12:00,75.8,67.0,30.01,NE,51,0.0,-999.0,75,-99.99,,,0.01,149,weatherlink.com 1.10,2013-01-20 20:12:00,
2013-01-20 15:27:00,75.9,67.0,30.01,ENE,59,1.0,-999.0,75,-99.99,,,0.01,197,weatherlink.com 1.10,2013-01-20 20:27:00,
2013-01-20 15:42:00,75.9,67.0,30.01,ENE,63,1.0,-999.0,75,-99.99,,,0.01,158,weatherlink.com 1.10,2013-01-20 20:42:00,
2013-01-20 15:57:00,75.9,68.0,30.02,ENE,57,0.0,-999.0,76,-99.99,,,0.01,146,weatherlink.com 1.10,2013-01-20 20:57:00,
2013-01-20 16:13:00,75.7,68.0,30.01,ESE,108,2.0,-999.0,76,-99.99,,,0.01,132,weatherlink.com 1.10,2013-01-20 21:13:00,
2013-01-20 16:27:00,75.5,68.0,30.02,NE,51,0.0,-999.0,77,-99.99,,,0.01,121,weatherlink.com 1.10,2013-01-20 21:27:00,
2013-01-20 16:43:00,75.6,68.0,30.03,ENE,74,0.0,-999.0,77,-99.99,,,0.01,104,weatherlink.com 1.10,2013-01-20 21:43:00,
2013-01-20 16:58:00,75.1,68.0,30.03,East,101,0.0,-999.0,78,-99.99,,,0.01,40,weatherlink.com 1.10,2013-01-20 21:58:00,
2013-01-20 17:13:00,74.7,68.0,30.03,ENE,65,1.0,-999.0,79,-99.99,,,0.01,30,weatherlink.com 1.10,2013-01-20 22:13:00,
2013-01-20 17:28:00,74.4,68.0,30.03,East,87,1.0,-999.0,79,-99.99,,,0.01,18,weatherlink.com 1.10,2013-01-20 22:28:00,
2013-01-20 17:43:00,74.3,68.0,30.03,ENE,63,0.0,-999.0,80,-99.99,,,0.01,7,weatherlink.com 1.10,2013-01-20 22:43:00,
2013-01-20 17:58:00,74.2,68.0,30.03,ENE,63,1.0,-999.0,80,-99.99,,,0.01,0,weatherlink.com 1.10,2013-01-20 22:58:00,
2013-01-20 18:13:00,73.8,68.0,30.03,ENE,69,0.0,-999.0,81,-99.99,,,0.01,0,weatherlink.com 1.10,2013-01-20 23:13:00,
2013-01-20 18:28:00,73.4,67.0,30.03,East,80,0.0,-999.0,81,-99.99,,,0.01,0,weatherlink.com 1.10,2013-01-20 23:28:00,
2013-01-20 18:43:00,73.0,67.0,30.04,East,84,0.0,-999.0,82,-99.99,,,0.01,0,weatherlink.com 1.10,2013-01-20 23:43:00,
2013-01-20 18:58:00,72.9,67.0,30.03,East,84,0.0,-999.0,82,-99.99,,,0.01,0,weatherlink.com 1.10,2013-01-20 23:58:00,
2013-01-20 19:13:00,72.4,67.0,30.04,East,84,0.0,-999.0,84,-99.99,,,0.01,0,weatherlink.com 1.10,2013-01-21 00:13:00,
2013-01-20 19:28:00,72.0,67.0,30.03,East,84,0.0,-999.0,84,-99.99,,,0.01,0,weatherlink.com 1.10,2013-01-21 00:28:00,
2013-01-20 19:43:00,71.7,67.0,30.04,East,84,0.0,-999.0,85,-99.99,,,0.01,0,weatherlink.com 1.10,2013-01-21 00:43:00,
2013-01-20 19:58:00,70.5,67.0,30.04,East,84,0.0,-999.0,87,-99.99,,,0.01,0,weatherlink.com 1.10,2013-01-21 00:58:00,
2013-01-20 20:13:00,69.6,66.0,30.04,East,84,0.0,-999.0,89,-99.99,,,0.01,0,weatherlink.com 1.10,2013-01-21 01:13:00,
2013-01-20 20:28:00,69.2,66.0,30.04,East,84,0.0,-999.0,90,-99.99,,,0.01,0,weatherlink.com 1.10,2013-01-21 01:28:00,
2013-01-20 20:43:00,68.5,66.0,30.05,East,84,0.0,-999.0,90,-99.99,,,0.01,0,weatherlink.com 1.10,2013-01-21 01:43:00,
2013-01-20 20:58:00,68.3,66.0,30.04,East,84,0.0,-999.0,91,-99.99,,,0.01,0,weatherlink.com 1.10,2013-01-21 01:58:00,
2013-01-20 21:12:00,68.1,65.0,30.05,East,84,0.0,-999.0,91,-99.99,,,0.01,0,weatherlink.com 1.10,2013-01-21 02:12:00,
2013-01-20 21:28:00,67.7,65.0,30.05,East,84,0.0,-999.0,92,-99.99,,,0.01,0,weatherlink.com 1.10,2013-01-21 02:28:00,
2013-01-20 21:42:00,67.4,65.0,30.05,East,84,0.0,-999.0,92,-99.99,,,0.01,0,weatherlink.com 1.10,2013-01-21 02:42:00,
2013-01-20 21:58:00,67.4,65.0,30.05,East,84,0.0,-999.0,93,-99.99,,,0.01,0,weatherlink.com 1.10,2013-01-21 02:58:00,
2013-01-20 22:13:00,67.1,65.0,30.05,East,84,0.0,-999.0,92,-99.99,,,0.01,0,weatherlink.com 1.10,2013-01-21 03:13:00,
2013-01-20 22:28:00,68.1,66.0,30.06,East,84,0.0,-999.0,93,-99.99,,,0.01,0,weatherlink.com 1.10,2013-01-21 03:28:00,
2013-01-20 22:43:00,68.5,67.0,30.05,East,84,0.0,-999.0,93,-99.99,,,0.01,0,weatherlink.com 1.10,2013-01-21 03:43:00,
2013-01-20 22:58:00,68.0,66.0,30.05,East,84,0.0,-999.0,93,-99.99,,,0.01,0,weatherlink.com 1.10,2013-01-21 03:58:00,
2013-01-20 23:13:00,68.1,66.0,30.05,East,84,0.0,-999.0,93,-99.99,,,0.01,0,weatherlink.com 1.10,2013-01-21 04:13:00,
2013-01-20 23:28:00,68.1,66.0,30.05,East,84,0.0,-999.0,93,-99.99,,,0.01,0,weatherlink.com 1.10,2013-01-21 04:28:00,
2013-01-20 23:43:00,68.2,67.0,30.05,East,84,0.0,-999.0,94,-99.99,,,0.01,0,weatherlink.com 1.10,2013-01-21 04:43:00,
2013-01-20 23:58:00,68.1,66.0,30.04,East,84,0.0,-999.0,94,-99.99,,,0.00,0,weatherlink.com 1.10,2013-01-21 04:58:00,